ELFIN-A (43617 NORAD) Tracking and Keplerian Element Data

This shows tracking and keplerian element data for the satellite.

Feedback or suggestion? Click here.




ElementValue
Catalog43617
NameELFIN-A
Epoch Orbit3844
Epoch Day143.83971049
Epoch Year2019
RAAN353.1279
Inclination93.0267
Eccentricity0.0018285
Argument of Perigee52.0531
Mean Anonmoly308.2371
Mean Motion15.3796101
Decay Rate2.175E-05
L11 43617U 18070E 19143.83971049 .00002175 00000-0 58217-4 0 9998
L22 43617 93.0267 353.1279 0018285 52.0531 308.2371 15.37961010 38446

Live tracking and technical data element details for ELFIN-A (NORAD 43617). ELFIN-A can be tracked NOW for your location showing map with azimuth and elevation plus other details from your city location.

Track the satellite on the map from your city or location and see movement details for azimuth, elevation, latitude, longitude, range, height, and movement on the map or in text.







IsCatalogInMostPopularTable: catalog: 43617, numindb: 109
Update: records affected: 1



GetName: 43617 ELFIN-A

Hit Count: updated at: Fri, 24 May 2019 21:51:52 GMT